www.pogodaiklimat.ru

Погода и климат >> Архив погоды >> Россия >> Приморский край >> Ольга


ПОГОДА в Ольге

  • Прогноз погоды в Ольге
  • Монитор погоды в Ольге

АРХИВ ПОГОДЫ в Ольге

Время (UTC), дата Ветер
(напр.,м/с)
 
Видим.   Явления Облачность Т
(С)
Тd
(С)
f
(%)
Тe
(С)
Тes
(С)
Комфортность P
(гПа)
Po
(гПа)
Тmin
(С)
Tmax
(С)
R
(мм)
R24
(мм)
S
(см)
09 9.06 СВ 3 20 км 10/10 300 м
[St]
+12.2 +9.0 81 +11 +11 1014.4 1012.0 +15.5
12 9.06 СВ 2 4000 м дымка 10/10 300 м
[St]
+10.9 +9.4 90 +10 +10 1014.1 1011.8
15 9.06 штиль 0 2000 м дымка 10 баллов +10.6 +9.5 93 +10 +10 1015.7 1013.3
18 9.06 СВ 2 2000 м дымка 10 баллов +10.6 +9.5 93 +9 +9 1014.4 1012.0
21 9.06 СВ 2 20 км 10/10 300 м
[St]
+11.0 +8.2 83 +10 +10 1013.8 1011.5 +10.3
00 10.06 С 2 20 км 10/10 300 м
[St]
+12.6 +8.3 75 +12 +12 1014.1 1011.8
03 10.06 С 4 50 км 2 балла +16.1 +7.8 58 +15 +26 опасность
простуды
1013.1 1010.7
06 10.06 В 2 50 км ясно +15.5 +8.9 65 +15 +28 опасность
простуды
1013.1 1010.7
09 10.06 В 1 50 км 1/0
[Ci fib]
+12.7 +8.2 74 +13 +15 1013.1 1010.7 +17.2
12 10.06 штиль 0 4000 м дымка 5/5 200 м
[St]
+9.1 +7.8 92 +8 +8 1012.4 1010.1
15 10.06 СВ 1 2000 м дымка 10 баллов +8.9 +7.8 93 +8 +8 1014.4 1012.0
18 10.06 СВ 1 2000 м дымка 10 баллов +8.3 +7.2 93 +7 +7 1013.1 1010.7
21 10.06 СЗ 1 1000 м дымка 10/10 100 м
[St]
+8.5 +7.5 93 +8 +8 1012.1 1009.8 +8.3
00 11.06 ЮВ 1 1000 м дымка 10/10 200 м
[St]
+10.7 +8.7 87 +10 +10 1012.6 1010.3
03 11.06 ЮВ 2 50 км 2 балла +14.4 +9.8 74 +14 +30 опасность
простуды
1011.7 1009.3
06 11.06 ЮВ 3 50 км 4 балла +14.2 +9.2 72 +13 +19 1011.7 1009.3
09 11.06 ЮВ 2 50 км 5/3 200 м
[St Ac trans Ci fib]
+12.3 +8.8 79 +11 +12 1011.7 1009.3 +15.3
12 11.06 СВ 1 1000 м дымка 10/10 100 м
[St]
+9.8 +8.9 94 +9 +9 1013.0 1010.6
15 11.06 штиль 0 2000 м дымка 10 баллов +10.2 +9.4 95 +9 +9 1014.4 1012.0
18 11.06 штиль 0 2000 м дымка 10 баллов +10.4 +9.6 95 +10 +10 1013.1 1010.7
21 11.06 В 1 4000 м дымка 10/10 200 м
[St]
+10.7 +9.8 94 +10 +10 1013.0 1010.7 +9.8
00 12.06 ЮВ 1 10 км 10/10 300 м
[St]
+13.0 +10.6 85 +13 +13 1012.5 1010.2
03 12.06 В 2 20 км 10 баллов +14.6 +10.8 78 +14 +14 1013.1 1010.7
06 12.06 В 2 10 км 10 баллов +13.5 +10.8 84 +13 +13 1011.7 1009.3
09 12.06 В 1 4000 м дымка 10/10 200 м
[St]
+12.0 +10.9 93 +12 +12 1011.7 1009.3 +16.4
12 12.06 В 1 2000 м дымка 10/10 200 м
[St]
+11.2 +10.4 95 +11 +11 1012.2 1009.9
15 12.06 штиль 0 4000 м дымка 10 баллов +10.8 +9.9 94 +10 +10 1013.1 1010.7
18 12.06 штиль 0 2000 м сильн. морось 10 баллов +10.3 +9.7 96 +9 +9 1013.1 1010.7
21 12.06 штиль 0 4000 м дымка 10/10 200 м
[St]
+10.8 +10.4 97 +10 +10 1011.4 1009.1 +10.2 0.6
00 13.06 В 1 4000 м дымка 10/10 200 м
[St]
+13.1 +10.4 84 +13 +13 1011.5 1009.2
03 13.06 Ю 3 10 км 10 баллов +13.6 +10.2 80 +12 +12 1011.7 1009.3
06 13.06 Ю 3 20 км 10 баллов +13.7 +9.9 78 +13 +13 1010.4 1008.0
09 13.06 ЮВ 1 4000 м дымка 10/10 300 м
[St]
+12.7 +10.6 87 +13 +13 1009.1 1006.7 +14.2
12 13.06 Ю 1 4000 м дымка 10/10 300 м
[St]
+12.1 +10.5 90 +12 +12 1008.5 1006.2
15 13.06 Ю 2 4000 м дымка 10 баллов +12.1 +10.7 91 +11 +11 1009.1 1006.7
18 13.06 СВ 1 4000 м дымка 10 баллов +12.3 +11.0 92 +12 +12 1007.7 1005.3
21 13.06 СВ 1 2000 м дымка 10/8 100 м
[St Ac trans]
+12.5 +11.3 92 +12 +13 1006.5 1004.2 +11.9
00 14.06 ЮВ 2 50 км 8/0
[Ac trans Ci fib]
+18.7 +12.5 67 +20 +29 1005.9 1003.6
03 14.06 С 2 20 км 10 баллов +16.1 +12.6 80 +16 +16 1006.4 1004.0
06 14.06 ЮВ 1 50 км 10 баллов +17.9 +13.4 75 +19 +19 1006.3 1004.0
09 14.06 С 2 20 км 10/3 300 м
[St Ac trans Cs]
+14.5 +12.5 88 +14 +14 1006.4 1004.0 +20.7
12 14.06 В 1 4000 м дымка 10/10 300 м
[St]
+13.8 +13.1 96 +14 +14 1006.5 1004.2
15 14.06 В 1 500 м туман н/о +13.6 +13.1 97 +14 1007.7 1005.3
18 14.06 СВ 1 10 км 10 баллов +10.7 +9.9 95 +10 +10 1009.1 1006.7
21 14.06 СВ 3 10 км 10/10 300 м
[St]
+11.0 +8.9 87 +9 +9 1008.2 1005.9 +10.6
00 15.06 СВ 3 10 км 10/10 300 м
[St]
+10.5 +8.5 87 +8 +8 1009.2 1006.9 +10.5
03 15.06 СВ 3
{10}
4000 м дождь 10/10 300 м
[Frnb Ns]
+10.1 +8.1 87 +8 +8 1009.4 1007.1
06 15.06 С 4-11
{12}
4000 м дождь 10/10 300 м
[Frnb Ns]
+9.7 +8.0 89 +7 +7 1010.4 1008.0
09 15.06 СВ 5-11
{14}
4000 м дождь 10/10 300 м
[Frnb Ns]
+8.8 +6.9 88 +5 +5 1010.4 1008.0 +11.1 10
12 15.06 СВ 6-13
{13}
4000 м слаб. дождь 10/10 300 м
[Frnb Ns]
+9.0 +6.7 85 +5 +5 1009.6 1007.2
15 15.06 СВ 5-14
{17}
4000 м слаб. дождь 10/10 300 м
[Frnb Ns]
+9.2 +6.3 82 +6 +6 1008.3 1005.9
18 15.06 СВ 7-14
{22}
4000 м слаб. дождь 10/10 300 м
[Frnb Ns]
+9.1 +6.4 83 +5 +5 1006.4 1004.1
21 15.06 СВ 4-10
{18}
10 км слаб. дождь 10/10 300 м
[Frnb Ns]
+9.0 +5.5 79 +6 +6 1007.0 1004.7 +8.8 4
00 16.06 СВ 4
{13}
10 км слаб. дождь 10/0 600 м
[As op]
+9.9 +6.7 80 +7 +9 1006.0 1003.7
03 16.06 СВ 4-10
{10}
50 км {дождь} 9/3 1000 м
[Sc Ac trans Ci fib]
+14.2 +6.7 61 +13 +18 1004.6 1002.3
06 16.06 СВ 3 20 км 10 баллов +11.5 +4.5 62 +10 +10 1006.4 1004.0

 

Местоположение метеостанции Ольга (Приморский край, Россия): широта 43.75 долгота 135.30 высота над уровнем моря 20 м.

В архиве по умолчанию представлена погода в Ольге за последнюю неделю. Архивные данные за месяц целиком и за предыдущие месяцы, начиная с января 2011 года, Вы можете получить, выбрав интересующий диапазон дат из раскрывающегося списка и нажав кнопку "Ввод!".


*Определитесь, кто Вы:
робот инопланетянин человек

Внимание! Время в таблицах - всемирное. Для получения местного времени необходимо прибавить поправку, которая равна 10 ч.

Смотрите также архив погоды в соседних городах и на ближайших метеорологических станциях:

Погода в Дальнегорске (Приморский край, Россия) (31 км)
Погода в Богополе (Приморский край, Россия) (56 км)
Погода в Кавалерово (Приморский край, Россия) (61 км)
Погода в Рудной Пристани (Приморский край, Россия) (80 км)
Погода в Лучегорске (Приморский край, Россия) (81 км)
Погода в Лазо (Приморский край, Россия) (127 км)
Погода в Чугуевке (Приморский край, Россия) (128 км)
Погода в Преображении (Приморский край, Россия) (148 км)
Погода в Тернее (Приморский край, Россия) (173 км)
Погода в Анучино (Приморский край, Россия) (186 км)

Пояснения к столбцам:

Ветер - указаны скорость ветра в м/с - средняя за 10 мин, порывы в срок и между сроками (в фигурных скобках) и направление, откуда дует ветер: С - северный, СВ - северо-восточный, В - восточный, ЮВ - юго-восточный, Ю - южный, ЮЗ - юго-западный, З - западный, СЗ - северо-западный.
Видимость - горизонтальная дальность видимости в метрах или километрах. При видимости от 1 до 10 км при отсутствии осадков обычно наблюдается дымка, при ухудшении видимости до 1 км и менее - туман. В сухую погоду видимость может ухудшаться дымом, пылью или мглою.
Явления - указаны атмосферные явления, наблюдавшиеся в срок или в последний час перед сроком; фигурными скобками обозначены явления, наблюдавшиеся между сроками (за 1-3 часа до срока); квадратными скобками обозначены град или гололедные отложения с указанием их диаметра в мм.
Облачность - указаны через наклонную черту общая и нижняя облачность в баллах и высота нижней границы облаков в метрах; квадратными скобками обозначены формы облаков: Ci - перистые, Cs - перисто-слоистые, Cc - перисто-кучевые, Ac - высококучевые, As - высокослоистые, Sc - слоисто-кучевые, Ns - слоисто-дождевые, Cu - кучевые, Cb - кучево-дождевые. Подробнее классификацию облаков см. в Атласе облаков (PDF).
T - Температура воздуха - температура, измеренная на высоте 2 м над землей.
Td - Температура точки росы - температура, при понижении до которой содержащийся в воздухе водяной пар достигнет насыщения.
f - Относительная влажность воздуха - влажноcть воздуха, измеренная на высоте 2 м над землей.
Te - Эффективная температура - температура, которую ощущает одетый по сезону человек в тени. Характеристика душности погоды. При расчете учитывается влияние влажности воздуха и скорости ветра на теплоощущения человека.
Tes - Эффективная температура на солнце - температура, которую ощущает человек, с поправкой на солнечный нагрев. Характеристика знойности погоды. Зависит от высоты солнца над горизонтом, облачности и скорости ветра. Ночью, в пасмурную погоду, а также при ветре 12 м/с и более поправка равна нулю.
P - Атмосферное давление - приведенное к уровню моря атмосферное давление.
Po - Атмосферное давление - измеренное на уровне метеостанции атмосферное давление.
Tmin - Минимальная температура - минимум температуры воздуха на высоте 2 м над землей.
Tmax - Максимальная температура - максимум температуры воздуха на высоте 2 м над землей.
R - Количество осадков - Количество выпавших осадков за период времени, мм. При наведении курсора мыши на число - период времени, за который выпало указанное количество осадков.
R24 - Количество осадков - Количество выпавших осадков за 24 часа, мм.
S - Снежный покров - Высота снежного покрова, см. При наведении курсора мыши на число - состояние снежного покрова и степень покрытия местности в баллах.